Location: Oberkirch
(48.5323°N, 8.0787°E)
Time: 16:45:49
(UTC+00:00)

Vanguard 3 - All Passes

Search period start: 16 February 2026 00:00
Search period end: 26 February 2026 00:00
Orbit: 507 x 3205 km, 33.3° (Epoch: 16 February)

Date Brightness Start Highest point End Pass type
(mag) Time Alt. Az. Time Alt. Az. Time Alt. Az.
16 Feb - 16:26:07 10° SSW 16:30:43 16° S 16:34:14 10° SE daylight
16 Feb - 18:38:04 10° SW 18:40:49 14° SSW 18:43:09 10° SSE visible
17 Feb - 15:04:01 10° SSW 15:09:14 16° SSE 15:13:16 10° SE daylight
17 Feb - 17:15:05 10° SW 17:19:51 18° S 17:23:25 10° SE visible
18 Feb - 13:43:00 10° S 13:47:24 13° SSE 13:51:05 10° SE daylight
18 Feb - 15:52:11 10° SW 15:58:33 20° S 16:03:06 10° SE daylight
18 Feb - 18:04:46 10° SW 18:08:50 17° SSW 18:11:58 10° SSE visible
19 Feb - 14:29:34 10° SSW 14:36:53 19° SSE 14:42:11 10° SE daylight
19 Feb - 16:41:26 10° SW 16:47:45 22° S 16:52:10 10° SE daylight
19 Feb - 18:55:20 10° SW 18:57:36 12° SSW 18:59:33 10° S visible
20 Feb - 13:07:52 10° S 13:14:49 16° SSE 13:20:16 10° SE daylight
20 Feb - 15:18:07 10° SW 15:26:16 24° S 15:31:48 10° SE daylight
20 Feb - 17:31:17 10° WSW 17:36:45 20° SSW 17:40:43 10° SSE visible
21 Feb - 11:49:02 10° SSE 11:52:29 11° SSE 11:55:38 10° SE daylight
21 Feb - 13:55:05 10° SSW 14:04:22 23° SSE 14:10:51 10° ESE daylight
21 Feb - 16:07:34 10° SW 16:15:32 26° S 16:20:48 10° SE daylight
21 Feb - 18:21:47 10° WSW 18:25:31 15° SSW 18:28:30 10° S visible
22 Feb - 12:32:57 10° SSW 12:42:04 19° SSE 12:48:58 10° ESE daylight
22 Feb - 14:43:52 10° SW 14:53:50 28° S 15:00:21 10° ESE daylight
22 Feb - 16:57:35 10° WSW 17:04:35 24° SSW 17:09:21 10° SE daylight
23 Feb - 11:13:01 10° S 11:19:31 14° SSE 11:25:06 10° SE daylight
23 Feb - 13:20:31 10° SSW 13:31:39 26° SSE 13:39:18 10° ESE daylight
23 Feb - 15:33:30 10° WSW 15:43:10 30° S 15:49:21 10° SE daylight
23 Feb - 17:48:08 10° WSW 17:53:23 18° SSW 17:57:16 10° SSE visible
24 Feb - 11:58:08 10° SSW 12:09:06 22° SSE 12:17:20 10° ESE daylight
24 Feb - 14:09:28 10° SW 14:21:13 31° S 14:28:46 10° ESE daylight
24 Feb - 16:23:39 10° WSW 16:32:18 27° SSW 16:37:55 10° SE daylight
24 Feb - 18:40:28 10° SW 18:41:51 11° SW 18:43:09 10° SSW visible
25 Feb - 10:37:46 10° S 10:46:22 16° SSE 10:53:38 10° ESE daylight
25 Feb - 12:45:55 10° SW 12:58:45 29° SSE 13:07:34 10° ESE daylight
25 Feb - 14:59:15 10° WSW 15:10:38 33° S 15:17:46 10° SE daylight
25 Feb - 17:14:17 10° WSW 17:21:07 21° SSW 17:25:55 10° SSE daylight
